"Period start","avg(HW err(1)/warn(2) (#))","avg(Visibility (m))","avg(Weather code (#))","avg(Precip intensity (mm/h))","min(HW err(1)/warn(2) (#))","max(HW err(1)/warn(2) (#))","std(HW err(1)/warn(2) (#))","med(HW err(1)/warn(2) (#))","min(Visibility (m))","max(Visibility (m))","std(Visibility (m))","med(Visibility (m))","min(Weather code (#))","max(Weather code (#))","std(Weather code (#))","med(Weather code (#))","min(Precip intensity (mm/h))","max(Precip intensity (mm/h))","std(Precip intensity (mm/h))","med(Precip intensity (mm/h))"
2013-08-31 00:00:00,2,6575,61,3.28,2,2,0,2,5049,7675,836,6678,61,61,0,61,1.85,4.40,0.81,3.50
2013-08-31 00:10:00,2,4067,61,5.38,2,2,0,2,3230,5877,740,3870,61,61,0,61,3.20,6.75,1.04,5.62
2013-08-31 00:20:00,2,4276,61,5.54,2,2,0,2,3684,4739,331,4270,61,61,0,61,3.65,7.05,1.11,5.45
2013-08-31 00:30:00,2,4549,61,6.48,2,2,0,2,4169,5416,364,4384,61,61,0,61,5.35,9.15,1.04,6.35
2013-08-31 00:40:00,2,5544,61,5.31,2,2,0,2,4255,7256,943,5390,61,61,0,61,3.50,6.75,1.02,5.35
2013-08-31 00:50:00,2,6942,61,4.91,2,2,0,2,6216,8158,540,7048,61,61,0,61,4.00,6.75,0.78,4.80
2013-08-31 01:00:00,2,6942,61,4.02,2,2,0,2,5869,7544,488,6872,61,61,0,61,2.95,5.25,0.76,3.90
2013-08-31 01:10:00,2,7404,54,3.85,2,2,0,2,6186,9000,839,7662,52,61,4,52,2.70,5.60,0.81,3.55
2013-08-31 01:20:00,2,7144,61,4.60,2,2,0,2,6080,8168,611,7124,61,61,0,61,2.35,7.95,1.60,4.22
2013-08-31 01:30:00,2,7401,61,4.10,2,2,0,2,6045,8438,676,7582,61,61,0,61,2.70,6.05,1.15,3.83
2013-08-31 01:40:00,2,8050,53,3.58,2,2,0,2,6947,9243,740,8037,52,61,3,52,2.50,5.45,0.92,3.60
2013-08-31 01:50:00,2,7564,57,3.99,2,2,0,2,6164,8737,781,7570,52,61,4,61,3.05,6.30,1.07,3.50
2013-08-31 02:00:00,2,8346,59,2.85,2,2,0,2,6718,9685,859,8495,52,61,4,61,2.45,3.55,0.30,2.85
2013-08-31 02:10:00,2,6779,61,3.70,2,2,0,2,5999,8007,653,6594,61,61,0,61,2.40,5.95,1.28,3.25
2013-08-31 02:20:00,2,8138,59,3.80,2,2,0,2,6870,9683,851,8094,52,61,4,61,3.35,5.05,0.47,3.57
2013-08-31 02:30:00,2,7044,61,3.89,2,2,0,2,6272,7932,551,6880,61,61,0,61,2.80,6.00,0.90,3.50
2013-08-31 02:40:00,2,7329,61,2.96,2,2,0,2,6772,8270,471,7190,61,61,0,61,2.00,3.85,0.51,2.85
2013-08-31 02:50:00,2,7627,61,2.88,2,2,0,2,6685,8608,658,7821,61,61,0,61,2.10,3.75,0.62,2.90
2013-08-31 03:00:00,2,7576,58,2.89,2,2,0,2,6478,8767,635,7584,52,61,4,61,2.10,4.25,0.63,2.75
2013-08-31 03:10:00,2,8886,52,2.41,2,2,0,2,7156,10933,1105,8940,52,52,0,52,1.70,3.05,0.43,2.33
2013-08-31 03:20:00,2,7740,52,2.04,2,2,0,2,6680,8986,819,7513,52,52,0,52,1.40,2.90,0.47,1.93
2013-08-31 03:30:00,2,6035,58,2.40,2,2,0,2,4892,7494,901,5830,52,61,4,61,1.55,3.35,0.61,2.33
2013-08-31 03:40:00,2,4902,56,3.91,2,2,0,2,4258,5865,536,4797,52,61,4,56,2.60,5.00,0.84,4.10
2013-08-31 03:50:00,2,4869,58,3.48,2,2,0,2,3625,7041,1051,4699,52,61,4,61,2.05,5.65,1.13,3.40
2013-08-31 04:00:00,2,4705,60,2.38,2,2,0,2,4103,5807,472,4670,52,61,3,61,1.70,3.25,0.45,2.42
2013-08-31 04:10:00,2,4753,58,1.74,2,2,0,2,4081,5290,424,4814,52,61,4,61,1.40,2.40,0.29,1.75
2013-08-31 04:20:00,2,4671,59,1.43,2,2,0,2,3102,5586,690,4680,52,61,4,61,0.90,2.55,0.45,1.30
2013-08-31 04:30:00,2,4492,61,1.75,2,2,0,2,3172,6190,934,4464,61,61,0,61,0.40,4.30,1.07,1.40
2013-08-31 04:40:00,2,4126,58,1.33,2,2,0,2,3295,4798,451,4082,52,61,4,61,0.70,1.95,0.36,1.38
2013-08-31 04:50:00,2,4260,56,1.15,2,2,0,2,3217,5837,929,3993,52,61,4,56,0.30,4.45,1.13,0.82
2013-08-31 05:00:00,2,6567,54,0.26,2,2,0,2,4643,8488,1037,6368,51,61,5,51,0.10,0.55,0.13,0.25
2013-08-31 05:10:00,2,8669,54,0.31,2,2,0,2,8014,9791,494,8583,51,61,5,51,0.10,1.65,0.45,0.15
2013-08-31 05:20:00,2,8214,51,0.22,2,2,0,2,6044,10595,1417,8324,51,51,0,51,0.05,0.45,0.13,0.20
2013-08-31 05:30:00,2,14860,11,0.01,2,2,0,2,11323,17029,1584,15115,0,51,14,10,0.00,0.10,0.03,0.00
2013-08-31 05:40:00,2,13888,0,0.00,2,2,0,2,12143,15850,1284,14028,0,0,0,0,0.00,0.00,0.00,0.00
2013-08-31 05:50:00,2,13973,0,0.00,2,2,0,2,12981,15805,939,13781,0,0,0,0,0.00,0.00,0.00,0.00
2013-08-31 06:00:00,2,13566,0,0.00,2,2,0,2,12444,14546,692,13408,0,0,0,0,0.00,0.00,0.00,0.00
2013-08-31 06:10:00,2,16154,0,0.00,2,2,0,2,14734,17750,1208,15974,0,0,0,0,0.00,0.00,0.00,0.00
2013-08-31 06:20:00,2,15234,0,0.00,2,2,0,2,13632,16145,877,15550,0,0,0,0,0.00,0.00,0.00,0.00
2013-08-31 06:30:00,2,16122,0,0.00,2,2,0,2,13974,18394,1295,15684,0,0,0,0,0.00,0.00,0.00,0.00
2013-08-31 06:40:00,2,16153,0,0.00,2,2,0,2,13957,18083,1475,15962,0,0,0,0,0.00,0.00,0.00,0.00
2013-08-31 06:50:00,2,14927,0,0.00,2,2,0,2,14102,16389,816,14650,0,0,0,0,0.00,0.00,0.00,0.00
2013-08-31 07:00:00,2,13340,4,0.03,2,2,0,2,8981,15878,2271,13936,0,40,12,0,0.00,0.25,0.08,0.00
2013-08-31 07:10:00,2,11098,50,0.50,2,2,0,2,8231,13752,1934,11397,40,52,3,52,0.00,1.10,0.40,0.47
2013-08-31 07:20:00,2,15875,5,0.00,2,2,0,2,14618,17477,929,15770,0,51,15,0,0.00,0.00,0.00,0.00
2013-08-31 07:30:00,2,17715,0,0.00,2,2,0,2,14969,19847,1615,18043,0,0,0,0,0.00,0.00,0.00,0.00
2013-08-31 07:40:00,2,17643,0,0.00,2,2,0,2,15335,19267,1105,17739,0,0,0,0,0.00,0.00,0.00,0.00
2013-08-31 07:50:00,2,18859,0,0.00,2,2,0,2,17314,19608,690,19106,0,0,0,0,0.00,0.00,0.00,0.00
2013-08-31 08:00:00,2,19973,0,0.00,2,2,0,2,17961,21056,1019,20137,0,0,0,0,0.00,0.00,0.00,0.00
2013-08-31 08:10:00,2,19544,0,0.00,2,2,0,2,17319,21956,1472,19451,0,0,0,0,0.00,0.00,0.00,0.00
2013-08-31 08:20:00,2,18738,0,0.00,2,2,0,2,16548,21244,1447,18578,0,0,0,0,0.00,0.00,0.00,0.00
2013-08-31 08:30:00,2,18594,0,0.00,2,2,0,2,17392,19726,662,18635,0,0,0,0,0.00,0.00,0.00,0.00
2013-08-31 08:40:00,2,19424,0,0.00,2,2,0,2,17709,21787,1341,19328,0,0,0,0,0.00,0.00,0.00,0.00
2013-08-31 08:50:00,2,19699,0,0.00,2,2,0,2,18050,21214,1049,19887,0,0,0,0,0.00,0.00,0.00,0.00
2013-08-31 09:00:00,2,20289,0,0.00,2,2,0,2,17407,22560,1704,20262,0,0,0,0,0.00,0.00,0.00,0.00
2013-08-31 09:10:00,2,21625,0,0.00,2,2,0,2,18402,24965,1727,21382,0,0,0,0,0.00,0.00,0.00,0.00
2013-08-31 09:20:00,2,20657,0,0.00,2,2,0,2,19066,23560,1208,20494,0,0,0,0,0.00,0.00,0.00,0.00
2013-08-31 09:30:00,2,20984,0,0.00,2,2,0,2,18895,22183,941,21069,0,0,0,0,0.00,0.00,0.00,0.00
2013-08-31 09:40:00,2,21731,0,0.00,2,2,0,2,20077,22695,837,21772,0,0,0,0,0.00,0.00,0.00,0.00
2013-08-31 09:50:00,2,22745,0,0.00,2,2,0,2,20228,25420,1531,22400,0,0,0,0,0.00,0.00,0.00,0.00
2013-08-31 10:00:00,2,21112,0,0.00,2,2,0,2,19155,23067,1086,21238,0,0,0,0,0.00,0.00,0.00,0.00
2013-08-31 10:10:00,2,21760,0,0.00,2,2,0,2,19056,24945,1765,21479,0,0,0,0,0.00,0.00,0.00,0.00
2013-08-31 10:20:00,2,22154,0,0.00,2,2,0,2,19841,25362,1745,21994,0,0,0,0,0.00,0.00,0.00,0.00
2013-08-31 10:30:00,2,21085,0,0.00,2,2,0,2,18642,22709,1173,21042,0,0,0,0,0.00,0.00,0.00,0.00
2013-08-31 10:40:00,2,20637,0,0.00,2,2,0,2,18188,22841,1566,20754,0,0,0,0,0.00,0.00,0.00,0.00
2013-08-31 10:50:00,2,22237,0,0.00,2,2,0,2,20196,23821,1132,22408,0,0,0,0,0.00,0.00,0.00,0.00
2013-08-31 11:00:00,2,25349,0,0.00,2,2,0,2,23809,28594,1571,24631,0,0,0,0,0.00,0.00,0.00,0.00
2013-08-31 11:10:00,2,26320,0,0.00,2,2,0,2,21728,29291,2859,27456,0,0,0,0,0.00,0.00,0.00,0.00
2013-08-31 11:20:00,2,26474,0,0.00,2,2,0,2,21967,31690,2657,26614,0,0,0,0,0.00,0.00,0.00,0.00
2013-08-31 11:30:00,2,25850,0,0.00,2,2,0,2,23005,31049,2105,25235,0,0,0,0,0.00,0.00,0.00,0.00
2013-08-31 11:40:00,2,29128,0,0.00,2,2,0,2,25658,33197,2479,28782,0,0,0,0,0.00,0.00,0.00,0.00
2013-08-31 11:50:00,2,32016,0,0.00,2,2,0,2,27690,35452,2146,31920,0,0,0,0,0.00,0.00,0.00,0.00
2013-08-31 12:00:00,2,29796,0,0.00,2,2,0,2,26700,31443,1378,30126,0,0,0,0,0.00,0.00,0.00,0.00
2013-08-31 12:10:00,2,30583,0,0.00,2,2,0,2,25482,38654,4208,29915,0,0,0,0,0.00,0.00,0.00,0.00
2013-08-31 12:20:00,2,31898,0,0.00,2,2,0,2,28750,35449,1974,31968,0,0,0,0,0.00,0.00,0.00,0.00
2013-08-31 12:30:00,2,35773,0,0.00,2,2,0,2,32516,39004,1888,35414,0,0,0,0,0.00,0.00,0.00,0.00
2013-08-31 12:40:00,2,31949,0,0.00,2,2,0,2,26621,40747,4176,30108,0,0,0,0,0.00,0.00,0.00,0.00
2013-08-31 12:50:00,2,38696,0,0.00,2,2,0,2,33184,48458,4934,37713,0,0,0,0,0.00,0.00,0.00,0.00
2013-08-31 13:00:00,2,37866,0,0.00,2,2,0,2,31288,50000,6023,35460,0,0,0,0,0.00,0.00,0.00,0.00
2013-08-31 13:10:00,2,37685,0,0.00,2,2,0,2,32952,44022,3819,36788,0,0,0,0,0.00,0.00,0.00,0.00
2013-08-31 13:20:00,2,41730,0,0.00,2,2,0,2,34492,46590,3392,41280,0,0,0,0,0.00,0.00,0.00,0.00
2013-08-31 13:30:00,2,32992,0,0.00,2,2,0,2,30025,35696,1968,33006,0,0,0,0,0.00,0.00,0.00,0.00
2013-08-31 13:40:00,2,33219,0,0.00,2,2,0,2,28478,38926,3032,33240,0,0,0,0,0.00,0.00,0.00,0.00
2013-08-31 13:50:00,2,32990,0,0.00,2,2,0,2,27417,43114,4442,31609,0,0,0,0,0.00,0.00,0.00,0.00
2013-08-31 14:00:00,2,31305,0,0.00,2,2,0,2,26646,35302,2555,31780,0,0,0,0,0.00,0.00,0.00,0.00
2013-08-31 14:10:00,2,37376,0,0.00,2,2,0,2,32628,42457,3241,37660,0,0,0,0,0.00,0.00,0.00,0.00
2013-08-31 14:20:00,2,35387,0,0.00,2,2,0,2,29979,42580,3609,35320,0,0,0,0,0.00,0.00,0.00,0.00
2013-08-31 14:30:00,2,36401,0,0.00,2,2,0,2,28464,42287,3915,36662,0,0,0,0,0.00,0.00,0.00,0.00
2013-08-31 14:40:00,2,32260,0,0.00,2,2,0,2,28196,38721,3602,30988,0,0,0,0,0.00,0.00,0.00,0.00
2013-08-31 14:50:00,2,37059,0,0.00,2,2,0,2,31715,44301,3781,36556,0,0,0,0,0.00,0.00,0.00,0.00
2013-08-31 15:00:00,2,35962,0,0.00,2,2,0,2,29650,41394,3154,35846,0,0,0,0,0.00,0.00,0.00,0.00
2013-08-31 15:10:00,2,33944,0,0.00,2,2,0,2,30892,37503,1930,33808,0,0,0,0,0.00,0.00,0.00,0.00
2013-08-31 15:20:00,2,32068,0,0.00,2,2,0,2,29996,34488,1339,32200,0,0,0,0,0.00,0.00,0.00,0.00
2013-08-31 15:30:00,2,31416,0,0.00,2,2,0,2,26108,36895,3285,32018,0,0,0,0,0.00,0.00,0.00,0.00
2013-08-31 15:40:00,2,26706,0,0.00,2,2,0,2,24686,29453,1412,26670,0,0,0,0,0.00,0.00,0.00,0.00
2013-08-31 15:50:00,2,28932,0,0.00,2,2,0,2,25100,31944,2553,29709,0,0,0,0,0.00,0.00,0.00,0.00
2013-08-31 16:00:00,2,25059,0,0.00,2,2,0,2,21861,30279,2566,24862,0,0,0,0,0.00,0.00,0.00,0.00
2013-08-31 16:10:00,2,26061,0,0.00,2,2,0,2,24443,29292,1597,25348,0,0,0,0,0.00,0.00,0.00,0.00
2013-08-31 16:20:00,2,21583,0,0.00,2,2,0,2,18821,25087,1801,21294,0,0,0,0,0.00,0.00,0.00,0.00
2013-08-31 16:30:00,2,20129,0,0.00,2,2,0,2,18652,22350,1064,19794,0,0,0,0,0.00,0.00,0.00,0.00
2013-08-31 16:40:00,2,20379,0,0.00,2,2,0,2,18405,23099,1534,19986,0,0,0,0,0.00,0.00,0.00,0.00
2013-08-31 16:50:00,2,17313,0,0.00,2,2,0,2,15643,18532,713,17453,0,0,0,0,0.00,0.00,0.00,0.00
2013-08-31 17:00:00,2,16086,0,0.00,2,2,0,2,14045,18279,1087,16312,0,0,0,0,0.00,0.00,0.00,0.00
2013-08-31 17:10:00,2,16240,0,0.00,2,2,0,2,14756,17363,847,16403,0,0,0,0,0.00,0.00,0.00,0.00
2013-08-31 17:20:00,2,16866,0,0.00,2,2,0,2,16029,19269,944,16508,0,0,0,0,0.00,0.00,0.00,0.00
2013-08-31 17:30:00,2,16612,0,0.00,2,2,0,2,15838,18669,859,16268,0,0,0,0,0.00,0.00,0.00,0.00
2013-08-31 17:40:00,2,17068,0,0.00,2,2,0,2,16421,18240,499,17016,0,0,0,0,0.00,0.00,0.00,0.00
2013-08-31 17:50:00,2,17970,0,0.00,2,2,0,2,16439,19515,1028,17885,0,0,0,0,0.00,0.00,0.00,0.00
2013-08-31 18:00:00,2,16821,0,0.00,2,2,0,2,15853,18090,760,16618,0,0,0,0,0.00,0.00,0.00,0.00
2013-08-31 18:10:00,2,16577,0,0.00,2,2,0,2,14370,18137,1254,16964,0,0,0,0,0.00,0.00,0.00,0.00
2013-08-31 18:20:00,2,16681,0,0.00,2,2,0,2,15294,18518,1035,16614,0,0,0,0,0.00,0.00,0.00,0.00
2013-08-31 18:30:00,2,14721,0,0.00,2,2,0,2,12955,16995,1027,14608,0,0,0,0,0.00,0.00,0.00,0.00
2013-08-31 18:40:00,2,16403,0,0.00,2,2,0,2,15715,18165,679,16183,0,0,0,0,0.00,0.00,0.00,0.00
2013-08-31 18:50:00,2,17499,0,0.00,2,2,0,2,14678,21362,2197,17413,0,0,0,0,0.00,0.00,0.00,0.00
2013-08-31 19:00:00,2,20448,0,0.00,2,2,0,2,16802,24194,2087,20326,0,0,0,0,0.00,0.00,0.00,0.00
2013-08-31 19:10:00,2,20678,0,0.00,2,2,0,2,17831,23453,2075,20223,0,0,0,0,0.00,0.00,0.00,0.00
2013-08-31 19:20:00,2,26267,0,0.00,2,2,0,2,23318,32141,2829,25111,0,0,0,0,0.00,0.00,0.00,0.00
2013-08-31 19:30:00,2,22915,0,0.00,2,2,0,2,20128,25546,1638,23060,0,0,0,0,0.00,0.00,0.00,0.00
2013-08-31 19:40:00,2,22575,0,0.00,2,2,0,2,20037,26951,2201,21518,0,0,0,0,0.00,0.00,0.00,0.00
2013-08-31 19:50:00,2,20820,0,0.00,2,2,0,2,19723,23336,1079,20346,0,0,0,0,0.00,0.00,0.00,0.00
2013-08-31 20:00:00,2,19086,0,0.00,2,2,0,2,17503,21008,1137,18907,0,0,0,0,0.00,0.00,0.00,0.00
2013-08-31 20:10:00,2,17136,0,0.00,2,2,0,2,15726,18930,940,17287,0,0,0,0,0.00,0.00,0.00,0.00
2013-08-31 20:20:00,2,15180,48,0.48,2,2,0,2,13962,16857,990,15151,40,51,5,51,0.05,1.20,0.37,0.45
2013-08-31 20:30:00,2,15692,49,0.27,2,2,0,2,14268,18017,1124,15183,0,61,17,51,0.00,1.30,0.41,0.05
2013-08-31 20:40:00,2,14680,30,0.16,2,2,0,2,12517,17334,1485,14822,0,61,30,30,0.00,1.20,0.36,0.00
2013-08-31 20:50:00,2,14710,55,0.33,2,2,0,2,12354,18140,1733,14616,51,61,5,51,0.00,1.05,0.30,0.23
2013-08-31 21:00:00,2,21814,6,0.00,2,2,0,2,17932,26013,2648,21628,0,61,18,0,0.00,0.00,0.00,0.00
2013-08-31 21:10:00,2,21526,37,0.11,2,2,0,2,13320,27456,4726,21536,0,61,30,61,0.00,0.45,0.15,0.03
2013-08-31 21:20:00,2,27070,0,0.00,2,2,0,2,21171,32581,3352,27524,0,0,0,0,0.00,0.00,0.00,0.00
2013-08-31 21:30:00,2,28092,0,0.00,2,2,0,2,24073,32398,3040,28376,0,0,0,0,0.00,0.00,0.00,0.00
2013-08-31 21:40:00,2,25000,0,0.00,2,2,0,2,22434,27378,1617,24811,0,0,0,0,0.00,0.00,0.00,0.00
2013-08-31 21:50:00,2,28436,0,0.00,2,2,0,2,25264,33078,2050,28043,0,0,0,0,0.00,0.00,0.00,0.00
2013-08-31 22:00:00,2,29866,0,0.00,2,2,0,2,25425,34545,2530,30056,0,0,0,0,0.00,0.00,0.00,0.00
2013-08-31 22:10:00,2,32457,0,0.00,2,2,0,2,29001,35444,1973,32586,0,0,0,0,0.00,0.00,0.00,0.00
2013-08-31 22:20:00,2,30523,0,0.00,2,2,0,2,24401,35533,3427,30028,0,0,0,0,0.00,0.00,0.00,0.00
2013-08-31 22:30:00,2,27167,0,0.00,2,2,0,2,20601,33855,3564,26677,0,0,0,0,0.00,0.00,0.00,0.00
2013-08-31 22:40:00,2,22662,0,0.00,2,2,0,2,19742,25509,1370,22794,0,0,0,0,0.00,0.00,0.00,0.00
2013-08-31 22:50:00,2,24121,0,0.00,2,2,0,2,22228,26007,1261,24043,0,0,0,0,0.00,0.00,0.00,0.00
2013-08-31 23:00:00,2,23544,0,0.00,2,2,0,2,20876,26124,1662,23945,0,0,0,0,0.00,0.00,0.00,0.00
2013-08-31 23:10:00,2,28408,0,0.00,2,2,0,2,24294,36444,3920,27906,0,0,0,0,0.00,0.00,0.00,0.00
2013-08-31 23:20:00,2,27673,0,0.00,2,2,0,2,23264,35450,3117,27754,0,0,0,0,0.00,0.00,0.00,0.00
2013-08-31 23:30:00,2,22862,0,0.00,2,2,0,2,19511,27266,2686,22288,0,0,0,0,0.00,0.00,0.00,0.00
2013-08-31 23:40:00,2,26892,0,0.00,2,2,0,2,22672,35103,4003,25394,0,0,0,0,0.00,0.00,0.00,0.00
2013-08-31 23:50:00,2,28947,0,0.00,2,2,0,2,25026,34607,2653,28263,0,0,0,0,0.00,0.00,0.00,0.00
